{"data":{"norad_id":65762,"intl_designator":"2025-217A","name":"KUIPER-00120","alt_names":[],"object_type":"PAYLOAD","status":"ACTIVE","operator":null,"country":"US","launch_date":"2025-09-25","launch_site_code":"AFETR","launch_vehicle":null,"mission":null,"orbit_class":"UNKNOWN","rcs_meters":null,"size_class":null,"mass_kg":null,"dimensions":null,"purposes":[],"wikipedia_slug":null,"has_3d_model":false,"image_url":null,"decayed_at":null,"tle_current":{"epoch":"2026-09-20T07:02:36.638304Z","epoch_age_seconds":164638,"freshness":"FRESH","line1":"1 65762U 25217A   26263.29347961  .00001613  00000+0  24061-3 0  9999","line2":"2 65762  51.9003 272.5100 0000519  63.2717 296.8299 14.79928704 53558","mean_motion":14.79928704,"eccentricity":5.19e-5,"inclination_deg":51.9003,"raan_deg":272.51,"arg_perigee_deg":63.2717,"mean_anomaly_deg":296.8299,"bstar":0.00024061,"rev_number":5355,"period_min":97.301984623173,"perigee_km":629.18549170196,"apogee_km":629.91288952854,"semimajor_km":7007.6861906152,"source":"CELESTRAK","updated_at":"2026-09-21T09:00:15.533269Z"}}}